TAR745 EDDF-LIMC

Flight info

Callsign TAR745
Flight time 0h 54m
Altitude 33000
Route ANEKI2L/18 ANEKI Y163 NATOR DCT DITON DCT BASGO Z424 RIXUV
Aircraft A320/M-SDE3FGHIRWY/LB1

Departure

Time 2026-05-04 18:32
Airport Frankfurt Main Airport (EDDF)

Arrival

Time 2026-05-04 19:26
Airport Milan Malpensa International Airport (LIMC)
Time Latitude Longitude Altitude Speed Heading
2026-05-04 17:53 50.04744 8.58176 366 ft 0 kts 160°
2026-05-04 18:19 50.04767 8.58162 364 ft 4 kts 159°
2026-05-04 18:19 50.04793 8.58149 360 ft 4 kts 173°
2026-05-04 18:19 50.04819 8.58151 359 ft 4 kts 210°
2026-05-04 18:20 50.04831 8.58170 360 ft 1 kts 249°
2026-05-04 18:20 50.04832 8.58175 360 ft 0 kts 249°
2026-05-04 18:23 50.04831 8.58170 360 ft 4 kts 249°
2026-05-04 18:23 50.04785 8.58012 364 ft 19 kts 237°
2026-05-04 18:23 50.04695 8.57844 361 ft 21 kts 243°
2026-05-04 18:24 50.04637 8.57621 361 ft 24 kts 249°
2026-05-04 18:24 50.04580 8.57365 363 ft 26 kts 250°
2026-05-04 18:24 50.04513 8.57090 364 ft 28 kts 250°
2026-05-04 18:24 50.04443 8.56801 359 ft 29 kts 249°
2026-05-04 18:25 50.04383 8.56534 363 ft 16 kts 252°
2026-05-04 18:25 50.04337 8.56353 359 ft 20 kts 249°
2026-05-04 18:25 50.04287 8.56137 356 ft 23 kts 251°
2026-05-04 18:25 50.04227 8.55892 356 ft 26 kts 250°
2026-05-04 18:26 50.04163 8.55621 359 ft 17 kts 250°
2026-05-04 18:26 50.04120 8.55445 357 ft 19 kts 250°
2026-05-04 18:26 50.04073 8.55244 356 ft 21 kts 250°
2026-05-04 18:26 50.04020 8.55024 359 ft 19 kts 250°
2026-05-04 18:27 50.03968 8.54810 356 ft 23 kts 249°
2026-05-04 18:27 50.03907 8.54555 354 ft 27 kts 249°
2026-05-04 18:27 50.03820 8.54281 351 ft 30 kts 237°
2026-05-04 18:27 50.03740 8.53976 350 ft 31 kts 249°
2026-05-04 18:28 50.03662 8.53645 350 ft 33 kts 250°
2026-05-04 18:28 50.03619 8.53482 337 ft 10 kts 246°
2026-05-04 18:28 50.03594 8.53383 339 ft 10 kts 250°
2026-05-04 18:28 50.03571 8.53284 335 ft 11 kts 250°
2026-05-04 18:29 50.03537 8.53141 338 ft 16 kts 250°
2026-05-04 18:29 50.03491 8.52951 334 ft 21 kts 248°
2026-05-04 18:29 50.03430 8.52717 332 ft 25 kts 249°
2026-05-04 18:29 50.03338 8.52595 336 ft 1 kts 176°
2026-05-04 18:30 50.03337 8.52595 336 ft 0 kts 176°
2026-05-04 18:31 50.03216 8.52597 336 ft 42 kts 180°
2026-05-04 18:31 50.02613 8.52601 334 ft 135 kts 179°
2026-05-04 18:31 50.01435 8.52611 661 ft 182 kts 180°
2026-05-04 18:32 50.00166 8.52655 1832 ft 182 kts 178°
2026-05-04 18:32 49.98950 8.52734 3002 ft 164 kts 178°
2026-05-04 18:32 49.97865 8.52828 3967 ft 152 kts 178°
2026-05-04 18:32 49.96763 8.52907 4503 ft 169 kts 177°
2026-05-04 18:33 49.95513 8.52991 4914 ft 191 kts 178°
2026-05-04 18:33 49.94073 8.53088 5006 ft 219 kts 178°
2026-05-04 18:33 49.92478 8.53194 5112 ft 245 kts 178°
2026-05-04 18:33 49.90725 8.53309 5960 ft 253 kts 178°
2026-05-04 18:34 49.89031 8.53421 7448 ft 237 kts 179°
2026-05-04 18:34 49.87394 8.53530 8615 ft 236 kts 179°
2026-05-04 18:34 49.85746 8.53641 9678 ft 238 kts 180°
2026-05-04 18:34 49.84086 8.53751 10627 ft 241 kts 180°
2026-05-04 18:35 49.82390 8.53863 11548 ft 245 kts 180°
2026-05-04 18:35 49.80669 8.53976 12455 ft 249 kts 180°
2026-05-04 18:35 49.78921 8.54091 13382 ft 254 kts 180°
2026-05-04 18:35 49.77137 8.54021 14093 ft 265 kts 187°
2026-05-04 18:36 49.75219 8.53766 14435 ft 288 kts 187°
2026-05-04 18:36 49.73138 8.53478 14740 ft 312 kts 187°
2026-05-04 18:36 49.70895 8.53172 15015 ft 334 kts 187°
2026-05-04 18:36 49.68537 8.52858 15584 ft 344 kts 186°
2026-05-04 18:37 49.66133 8.52543 16330 ft 350 kts 186°
2026-05-04 18:37 49.63686 8.52225 17101 ft 354 kts 186°
2026-05-04 18:37 49.61250 8.51904 17861 ft 358 kts 186°
2026-05-04 18:37 49.58720 8.51575 18585 ft 362 kts 186°
2026-05-04 18:38 49.56191 8.51247 19243 ft 366 kts 186°
2026-05-04 18:38 49.53646 8.50916 19917 ft 369 kts 186°
2026-05-04 18:38 49.51080 8.50579 20592 ft 371 kts 186°
2026-05-04 18:38 49.48502 8.50237 21260 ft 374 kts 186°
2026-05-04 18:39 49.45926 8.49893 21913 ft 377 kts 186°
2026-05-04 18:39 49.43305 8.49544 22562 ft 379 kts 186°
2026-05-04 18:39 49.40659 8.49195 23202 ft 382 kts 186°
2026-05-04 18:39 49.37994 8.48851 23785 ft 385 kts 186°
2026-05-04 18:40 49.35316 8.48508 24307 ft 387 kts 186°
2026-05-04 18:40 49.32618 8.48160 24824 ft 390 kts 186°
2026-05-04 18:40 49.29906 8.47809 25327 ft 392 kts 187°
2026-05-04 18:40 49.27173 8.47454 25829 ft 395 kts 187°
2026-05-04 18:41 49.24464 8.47104 26320 ft 397 kts 187°
2026-05-04 18:41 49.21667 8.46742 26812 ft 400 kts 187°
2026-05-04 18:41 49.18923 8.46383 27282 ft 402 kts 187°
2026-05-04 18:41 49.16127 8.46017 27762 ft 405 kts 187°
2026-05-04 18:42 49.13312 8.45648 28238 ft 407 kts 187°
2026-05-04 18:42 49.10472 8.45282 28711 ft 410 kts 187°
2026-05-04 18:42 49.07620 8.44917 29178 ft 412 kts 187°
2026-05-04 18:42 49.04797 8.44216 29604 ft 412 kts 195°
2026-05-04 18:43 49.01997 8.43224 30037 ft 414 kts 194°
2026-05-04 18:43 48.99185 8.42236 30420 ft 415 kts 194°
2026-05-04 18:43 48.96363 8.41254 30780 ft 417 kts 194°
2026-05-04 18:43 48.93524 8.40273 31127 ft 419 kts 194°
2026-05-04 18:44 48.90673 8.39286 31482 ft 421 kts 194°
2026-05-04 18:44 48.88785 8.38632 31753 ft 421 kts 194°
2026-05-04 18:44 48.84972 8.37313 32417 ft 418 kts 194°
2026-05-04 18:44 48.82135 8.36330 32858 ft 418 kts 194°
2026-05-04 18:45 48.79309 8.35352 32966 ft 413 kts 194°
2026-05-04 18:45 48.73823 8.33404 32980 ft 401 kts 195°
2026-05-04 18:46 48.68408 8.31397 32979 ft 400 kts 195°
2026-05-04 18:46 48.62866 8.29352 32985 ft 419 kts 195°
2026-05-04 18:47 48.57189 8.27287 32988 ft 424 kts 195°
2026-05-04 18:47 48.51438 8.25275 32997 ft 425 kts 191°
2026-05-04 18:48 48.45508 8.25222 33000 ft 431 kts 174°
2026-05-04 18:48 48.39585 8.26688 33005 ft 432 kts 174°
2026-05-04 18:49 48.33661 8.28114 32995 ft 431 kts 174°
2026-05-04 18:49 48.27737 8.29535 32988 ft 431 kts 174°
2026-05-04 18:50 48.22770 8.30739 32986 ft 432 kts 174°
2026-05-04 18:50 48.15864 8.32155 32991 ft 429 kts 181°
2026-05-04 18:51 48.09898 8.32219 32992 ft 429 kts 182°
2026-05-04 18:51 48.03930 8.32297 32996 ft 429 kts 182°
2026-05-04 18:52 47.97963 8.32385 32992 ft 429 kts 182°
2026-05-04 18:52 47.91990 8.32480 32994 ft 429 kts 182°
2026-05-04 18:53 47.86015 8.32571 32993 ft 429 kts 182°
2026-05-04 18:53 47.80035 8.32649 32993 ft 430 kts 182°
2026-05-04 18:54 47.74048 8.32732 32990 ft 430 kts 182°
2026-05-04 18:54 47.68060 8.32810 32991 ft 430 kts 182°
2026-05-04 18:55 47.62079 8.32886 32982 ft 431 kts 182°
2026-05-04 18:55 47.53084 8.33036 32977 ft 431 kts 182°
2026-05-04 18:56 47.47074 8.33118 32980 ft 432 kts 182°
2026-05-04 18:56 47.41062 8.33187 32981 ft 432 kts 182°
2026-05-04 18:57 47.35037 8.33266 32982 ft 433 kts 182°
2026-05-04 18:57 47.29006 8.33401 33004 ft 434 kts 180°
2026-05-04 18:58 47.23009 8.34086 33001 ft 436 kts 177°
2026-05-04 18:58 47.16965 8.35077 33013 ft 437 kts 177°
2026-05-04 18:59 47.10918 8.36008 33009 ft 437 kts 178°
2026-05-04 18:59 47.04858 8.36835 33010 ft 437 kts 178°
2026-05-04 19:00 46.99780 8.37512 33006 ft 438 kts 178°
2026-05-04 19:00 46.92731 8.38456 32993 ft 437 kts 178°
2026-05-04 19:01 46.86662 8.39279 32998 ft 439 kts 178°
2026-05-04 19:01 46.80579 8.40098 32982 ft 439 kts 178°
2026-05-04 19:02 46.75519 8.40777 32991 ft 440 kts 178°
2026-05-04 19:02 46.69414 8.41593 33008 ft 440 kts 178°
2026-05-04 19:03 46.63310 8.42415 33019 ft 441 kts 178°
2026-05-04 19:03 46.57195 8.43240 33034 ft 442 kts 178°
2026-05-04 19:04 46.51068 8.44051 33052 ft 442 kts 178°
2026-05-04 19:04 46.44934 8.44861 32958 ft 444 kts 178°
2026-05-04 19:05 46.41858 8.45271 32690 ft 444 kts 178°
2026-05-04 19:05 46.38777 8.45684 32429 ft 444 kts 178°
2026-05-04 19:05 46.35703 8.46095 31907 ft 444 kts 178°
2026-05-04 19:05 46.32608 8.46510 30731 ft 449 kts 177°
2026-05-04 19:06 46.29490 8.46931 29597 ft 450 kts 176°
2026-05-04 19:06 46.26367 8.47352 28309 ft 452 kts 176°
2026-05-04 19:06 46.23228 8.47788 27042 ft 452 kts 176°
2026-05-04 19:06 46.20189 8.48229 26316 ft 426 kts 176°
2026-05-04 19:07 46.17292 8.48659 25257 ft 413 kts 176°
2026-05-04 19:07 46.14465 8.49070 24134 ft 404 kts 176°
2026-05-04 19:07 46.11701 8.49537 23015 ft 396 kts 171°
2026-05-04 19:07 46.09133 8.50595 22607 ft 372 kts 162°
2026-05-04 19:08 46.06773 8.51873 22129 ft 353 kts 162°
2026-05-04 19:08 46.04498 8.53091 21649 ft 348 kts 163°
2026-05-04 19:08 46.02226 8.54299 21162 ft 348 kts 163°
2026-05-04 19:08 45.99967 8.55502 20666 ft 346 kts 163°
2026-05-04 19:09 45.97713 8.56705 20168 ft 344 kts 163°
2026-05-04 19:09 45.96989 8.57091 20042 ft 339 kts 163°
2026-05-04 19:09 45.96271 8.57476 19883 ft 334 kts 163°
2026-05-04 19:09 45.94174 8.58607 20053 ft 329 kts 163°
2026-05-04 19:10 45.92033 8.59752 19818 ft 327 kts 163°
2026-05-04 19:10 45.89939 8.61036 19674 ft 330 kts 154°
2026-05-04 19:10 45.88031 8.62910 19201 ft 337 kts 144°
2026-05-04 19:10 45.86209 8.65024 18821 ft 335 kts 144°
2026-05-04 19:11 45.84407 8.67132 18432 ft 333 kts 144°
2026-05-04 19:11 45.82636 8.69204 17995 ft 332 kts 144°
2026-05-04 19:11 45.80850 8.71285 17567 ft 330 kts 144°
2026-05-04 19:11 45.79070 8.73352 17160 ft 328 kts 144°
2026-05-04 19:12 45.77304 8.75399 16729 ft 323 kts 145°
2026-05-04 19:12 45.73551 8.78616 15310 ft 313 kts 155°
2026-05-04 19:12 45.71628 8.80094 14454 ft 315 kts 155°
2026-05-04 19:13 45.69695 8.81581 13602 ft 316 kts 155°
2026-05-04 19:13 45.67744 8.83079 12676 ft 323 kts 154°
2026-05-04 19:13 45.65731 8.84618 11762 ft 333 kts 154°
2026-05-04 19:13 45.63667 8.86199 10892 ft 339 kts 153°
2026-05-04 19:14 45.61528 8.87644 10035 ft 342 kts 162°
2026-05-04 19:14 45.59206 8.88397 9123 ft 343 kts 169°
2026-05-04 19:14 45.56853 8.89045 8209 ft 345 kts 169°
2026-05-04 19:14 45.54491 8.89687 7324 ft 346 kts 169°
2026-05-04 19:15 45.52157 8.90316 6932 ft 334 kts 169°
2026-05-04 19:15 45.49922 8.90916 6684 ft 319 kts 169°
2026-05-04 19:15 45.47790 8.91489 6447 ft 306 kts 169°
2026-05-04 19:15 45.45739 8.92041 6183 ft 294 kts 169°
2026-05-04 19:16 45.43777 8.92575 6012 ft 280 kts 169°
2026-05-04 19:16 45.41918 8.93082 5882 ft 266 kts 169°
2026-05-04 19:16 45.40144 8.93566 5754 ft 252 kts 169°
2026-05-04 19:16 45.38461 8.94021 5624 ft 240 kts 169°
2026-05-04 19:17 45.36841 8.94457 5502 ft 235 kts 169°
2026-05-04 19:17 45.35233 8.94892 5377 ft 234 kts 169°
2026-05-04 19:17 45.33635 8.95239 5248 ft 228 kts 180°
2026-05-04 19:17 45.32129 8.94802 5128 ft 218 kts 205°
2026-05-04 19:18 45.30953 8.93537 5004 ft 211 kts 230°
2026-05-04 19:18 45.30291 8.91729 4876 ft 205 kts 255°
2026-05-04 19:18 45.29983 8.89782 4751 ft 199 kts 256°
2026-05-04 19:18 45.29683 8.87897 4622 ft 193 kts 256°
2026-05-04 19:19 45.29390 8.86070 4527 ft 189 kts 257°
2026-05-04 19:19 45.29380 8.84203 4391 ft 192 kts 283°
2026-05-04 19:19 45.30038 8.82564 4257 ft 195 kts 316°
2026-05-04 19:19 45.31295 8.81920 4172 ft 197 kts 355°
2026-05-04 19:20 45.32632 8.81705 4113 ft 195 kts 348°
2026-05-04 19:20 45.33962 8.81340 4112 ft 194 kts 348°
2026-05-04 19:20 45.35286 8.80973 4116 ft 194 kts 348°
2026-05-04 19:20 45.36612 8.80608 4115 ft 194 kts 348°
2026-05-04 19:21 45.37943 8.80244 4118 ft 194 kts 348°
2026-05-04 19:21 45.39269 8.79881 4116 ft 194 kts 348°
2026-05-04 19:21 45.40593 8.79518 4116 ft 194 kts 348°
2026-05-04 19:21 45.41914 8.79157 4118 ft 193 kts 348°
2026-05-04 19:22 45.43234 8.78795 4118 ft 193 kts 348°
2026-05-04 19:22 45.44559 8.78432 4032 ft 194 kts 347°
2026-05-04 19:22 45.45875 8.78071 3821 ft 192 kts 348°
2026-05-04 19:22 45.47181 8.77712 3582 ft 191 kts 348°
2026-05-04 19:23 45.48480 8.77362 3341 ft 186 kts 348°
2026-05-04 19:23 45.49700 8.77037 3083 ft 173 kts 348°
2026-05-04 19:23 45.50867 8.76728 2824 ft 168 kts 347°
2026-05-04 19:23 45.51996 8.76397 2682 ft 165 kts 346°
2026-05-04 19:24 45.53105 8.76012 2411 ft 163 kts 344°
2026-05-04 19:24 45.54208 8.75657 2197 ft 161 kts 350°
2026-05-04 19:24 45.55323 8.75409 2101 ft 162 kts 352°
2026-05-04 19:24 45.56436 8.75181 1841 ft 161 kts 351°
2026-05-04 19:25 45.57507 8.74901 1578 ft 151 kts 346°
2026-05-04 19:25 45.58496 8.74558 1334 ft 143 kts 345°
2026-05-04 19:25 45.59452 8.74299 1145 ft 136 kts 349°
2026-05-04 19:25 45.60376 8.74090 961 ft 132 kts 347°
2026-05-04 19:26 45.61260 8.73814 815 ft 131 kts 348°
2026-05-04 19:26 45.62153 8.73578 739 ft 129 kts 347°
2026-05-04 19:26 45.62906 8.73377 736 ft 84 kts 349°
2026-05-04 19:26 45.63190 8.73201 736 ft 35 kts 314°
2026-05-04 19:27 45.63280 8.73026 736 ft 12 kts 304°
2026-05-04 19:27 45.63329 8.72923 736 ft 12 kts 304°
2026-05-04 19:27 45.63379 8.72817 736 ft 13 kts 301°
2026-05-04 19:27 45.63406 8.72688 736 ft 17 kts 271°
2026-05-04 19:28 45.63383 8.72487 737 ft 24 kts 258°
2026-05-04 19:28 45.63352 8.72231 739 ft 28 kts 256°
2026-05-04 19:28 45.63313 8.71945 737 ft 16 kts 259°
2026-05-04 19:28 45.63259 8.71868 736 ft 11 kts 181°
2026-05-04 19:29 45.63158 8.71894 736 ft 18 kts 165°
2026-05-04 19:29 45.63099 8.71894 735 ft 4 kts 240°
2026-05-04 19:29 45.63091 8.71855 736 ft 4 kts 256°
2026-05-04 19:29 45.63085 8.71815 736 ft 4 kts 259°
2026-05-04 19:30 45.63081 8.71775 736 ft 4 kts 262°
2026-05-04 19:30 45.63080 8.71741 736 ft 2 kts 295°
2026-05-04 19:30 45.63090 8.71720 735 ft 3 kts 303°
2026-05-04 19:30 45.63097 8.71698 736 ft 2 kts 272°
2026-05-04 19:31 45.63095 8.71676 736 ft 2 kts 261°
2026-05-04 19:31 45.63091 8.71649 736 ft 3 kts 258°
2026-05-04 19:31 45.63087 8.71618 736 ft 3 kts 260°
2026-05-04 19:31 45.63083 8.71582 736 ft 0 kts 259°